User: anonymous   Login
Location: Columbia
(38.9520°N, 92.3340°W)
Time: 16:56:31
(UTC-06:00)
Language:

SL-08 RB Rocket - Orbit

View from above orbital plane
View from above orbital plane
View from above satellite
View from above satellite

Ground track
Ground track

The orbit data is extracted from the following two-line orbital elements,

1 26387U 00033D   14331.82324148  .00000852  00000-0  15804-3 0  6720
2 26387 098.0889 037.6298 0027675 057.7918 059.8094 14.67539164771083
Epoch (UTC): 27 November 2014 19:45:28
Eccentricity: 0.0027675
inclination: 98.0889°
perigee height: 649 km
apogee height: 688 km
right ascension of ascending node: 37.6298°
argument of perigee: 57.7918°
revolutions per day: 14.67539164
mean anomaly at epoch: 59.8094°
orbit number at epoch: 77108

The dashed part of the orbit path shows where the satellite is in the earth's shadow,  

DLR